Tracking 31032 objects as of 13-Jul-2025
HD Live streaming from Space Station
objects crossing your sky now

CZ-6A DEB

Track CZ-6A DEB now!
10-day predictions


NORAD ID: 54564
Int'l Code: 2022-151LQ
Perigee: 750.6 km
Apogee: 795.1 km
Inclination: 98.8 °
Period: 100.2 minutes
Semi major axis: 7143 km
RCS: Unknown
Launch date: November 11, 2022
Source: People's Republic of China (PRC)
Launch site: Taiyaun Space Center, China (TSC)

Note: This is SATELLITE DEBRIS
Your satellite tracking list
Your tracking list is empty




NASA's NSSDC Master Catalog

Two Line Element Set (TLE):
1 54564U 22151LQ  25194.52570566  .00004846  00000-0  16133-2 0  9990
2 54564  98.7634 221.1402 0031142 212.9500 146.9745 14.37821093138809
Source of the keplerian elements: AFSPC